Weather History for Fort Polk, LA

Change the Weather History Date:

Friday, February 28, 2014

  Actual Average (KPOE) Record (KPOE)
Temperature  
Mean Temperature 46 °F -  
Max Temperature 59 °F 62 °F 75 °F (1997)
Min Temperature 34 °F 43 °F 23 °F (2002)
Degree Days  
Heating Degree Days 18    
Moisture  
Dew Point 45 °F    
Average Humidity 80    
Maximum Humidity 94    
Minimum Humidity 62    
Precipitation  
Precipitation 0.05 in - - ()
Sea Level Pressure  
Sea Level Pressure 30.01 in    
Wind  
Wind Speed 3 mph (SSE)    
Max Wind Speed 12 mph    
Max Gust Speed 23 mph    
Visibility 6 miles    
Events Rain    
Averages and records for this station are not official NWS values.
T = Trace of Precipitation, MM = Missing Value Source: NWS Daily Summary

Daily Weather History Graph

Daily Weather History Graph

Search for Another Location

Airport:

Trip Planner

Search our weather history database for the weather conditions in past years. The results will help you decide how hot, cold, wet, or windy it might be!

Date:

Astronomy

Feb. 28, 2014 Rise Set
Actual Time 6:39 AM CST 6:09 PM CST
Civil Twilight 6:15 AM CST 6:33 PM CST
Nautical Twilight 5:46 AM CST 7:01 PM CST
Astronomical Twilight 5:18 AM CST 7:29 PM CST
Moon 5:53 AM CST (2/28) 5:45 PM CST (2/28)
Length of Visible Light 12h 18m
Length of Day
11h 30m
Waning Crescent, 1% of the Moon is Illuminated
Feb 28
Waning Crescent
Mar 1
New
Mar 8
First Quarter
Mar 16
Full
Mar 23
Last Quarter

Hourly Weather History & Observations

Time (CST) Temp. Dew Point Humidity Pressure Visibility Wind Dir Wind Speed Gust Speed Precip Events Conditions
12:54 AM 37.9 °F 35.1 °F 89% 30.06 in 10.0 mi Calm Calm - N/A   Clear
1:54 AM 37.0 °F 34.0 °F 89% 30.06 in 10.0 mi Calm Calm - N/A   Clear
2:54 AM 37.0 °F 33.1 °F 86% 30.06 in 10.0 mi Calm Calm - N/A   Clear
3:54 AM 35.1 °F 33.1 °F 92% 30.04 in 8.0 mi Calm Calm - N/A   Clear
4:54 AM 35.1 °F 32.0 °F 89% 30.06 in 7.0 mi Calm Calm - N/A   Clear
5:54 AM 34.0 °F 30.9 °F 89% 30.06 in 5.0 mi Calm Calm - N/A   Clear
6:54 AM 36.0 °F 33.1 °F 89% 30.06 in 5.0 mi Calm Calm - N/A   Clear
7:54 AM 43.0 °F 36.0 °F 76% 30.06 in 10.0 mi Calm Calm - N/A   Overcast
8:54 AM 48.0 °F 36.0 °F 63% 30.06 in 10.0 mi SSE 5.8 mph - N/A   Overcast
9:54 AM 50.0 °F 37.9 °F 63% 30.07 in 10.0 mi Calm Calm - N/A   Overcast
10:54 AM 54.0 °F 41.0 °F 62% 30.05 in 10.0 mi SSE 8.1 mph 19.6 mph N/A   Overcast
11:10 AM 55.4 °F 42.8 °F 63% 29.96 in 1.8 mi Variable 6.9 mph 20.7 mph N/A   Haze
11:19 AM 55.4 °F 42.8 °F 63% 29.96 in 4.0 mi Variable 5.8 mph - N/A   Haze
11:40 AM 57.2 °F 44.6 °F 63% 29.96 in 1.8 mi SSE 8.1 mph - N/A   Haze
11:54 AM 57.0 °F 45.0 °F 64% 30.04 in 2.0 mi SSE 9.2 mph - N/A   Haze
12:03 PM 57.2 °F 44.6 °F 63% 29.94 in 1.0 mi Variable 6.9 mph 19.6 mph N/A   Haze
12:12 PM 59.0 °F 46.4 °F 63% 29.93 in 0.5 mi Variable 5.8 mph - N/A   Haze
12:29 PM 57.2 °F 46.4 °F 67% 29.92 in 1.5 mi SE 10.4 mph 17.3 mph N/A   Haze
12:54 PM 57.9 °F 46.9 °F 67% 29.98 in 2.0 mi SSE 9.2 mph 19.6 mph N/A   Haze
1:19 PM 57.2 °F 46.4 °F 67% 29.88 in 5.0 mi South 11.5 mph 23.0 mph N/A   Haze
1:54 PM 57.0 °F 48.0 °F 72% 29.97 in 10.0 mi SSE 8.1 mph 19.6 mph N/A   Overcast
2:54 PM 57.0 °F 48.9 °F 74% 29.99 in 10.0 mi Variable 3.5 mph - N/A   Overcast
3:27 PM 55.4 °F 51.8 °F 88% 29.90 in 2.0 mi Calm Calm - 0.01 in Rain Light Rain
3:54 PM 55.0 °F 52.0 °F 89% 29.99 in 2.0 mi Calm Calm - 0.03 in Rain Light Rain
4:04 PM 55.4 °F 51.8 °F 88% 29.90 in 1.8 mi Variable 3.5 mph - 0.01 in Rain Light Rain
4:13 PM 55.4 °F 51.8 °F 88% 29.90 in 2.0 mi Variable 3.5 mph - 0.01 in Rain Light Rain
4:32 PM 55.4 °F 51.8 °F 88% 29.90 in 2.5 mi Variable 5.8 mph - 0.02 in Rain Light Rain
4:54 PM 55.0 °F 53.1 °F 93% 29.97 in 4.0 mi Variable 5.8 mph - 0.02 in Rain Light Rain
5:54 PM 55.0 °F 52.0 °F 89% 29.95 in 9.0 mi Variable 5.8 mph - N/A   Overcast
6:54 PM 55.9 °F 53.1 °F 90% 29.97 in 9.0 mi Variable 4.6 mph - N/A   Overcast
7:19 PM 55.4 °F 53.6 °F 94% 29.90 in 10.0 mi Variable 3.5 mph - N/A   Overcast
7:54 PM 55.9 °F 53.1 °F 90% 30.00 in 10.0 mi Calm Calm - N/A   Overcast
8:22 PM 55.4 °F 53.6 °F 94% 29.92 in 9.0 mi Calm Calm - N/A   Overcast
8:54 PM 55.9 °F 53.1 °F 90% 30.02 in 10.0 mi Calm Calm - N/A   Overcast
9:54 PM 55.9 °F 53.1 °F 90% 30.76 in 10.0 mi Calm Calm - N/A   Overcast
10:54 PM 57.0 °F 53.1 °F 87% 30.04 in 10.0 mi Variable 3.5 mph - N/A   Overcast
11:54 PM 57.9 °F 54.0 °F 87% 30.04 in 10.0 mi Variable 3.5 mph - N/A   Overcast